TimeCDT,TemperatureF,Dew PointF,Humidity,Sea Level PressureIn,VisibilityMPH,Wind Direction,Wind SpeedMPH,Gust SpeedMPH,PrecipitationIn,Events,Conditions,WindDirDegrees,DateUTC
12:35 AM,51.8,50.0,94,30.19,10.0,Calm,Calm,-,N/A,,Clear,0,2012-10-13 05:35:00
12:55 AM,53.6,50.0,88,30.18,10.0,Calm,Calm,-,N/A,,Scattered Clouds,0,2012-10-13 05:55:00
1:15 AM,53.6,51.8,94,30.17,10.0,SE,9.2,-,N/A,,Partly Cloudy,130,2012-10-13 06:15:00
1:55 AM,55.4,51.8,88,30.13,10.0,SE,12.7,-,N/A,,Overcast,130,2012-10-13 06:55:00
2:15 AM,55.4,51.8,88,30.11,10.0,SE,11.5,-,N/A,,Overcast,130,2012-10-13 07:15:00
2:35 AM,55.4,53.6,94,30.12,10.0,SE,8.1,-,N/A,,Overcast,130,2012-10-13 07:35:00
2:55 AM,55.4,53.6,94,30.11,8.0,SE,6.9,-,N/A,,Overcast,140,2012-10-13 07:55:00
3:35 AM,55.4,53.6,94,30.10,7.0,SE,6.9,-,N/A,,Overcast,140,2012-10-13 08:35:00
3:55 AM,55.4,53.6,94,30.10,7.0,SE,6.9,-,N/A,,Overcast,140,2012-10-13 08:55:00
4:15 AM,55.4,53.6,94,30.10,7.0,Calm,Calm,-,N/A,,Overcast,0,2012-10-13 09:15:00
4:35 AM,55.4,53.6,94,30.10,7.0,SE,5.8,-,N/A,,Overcast,140,2012-10-13 09:35:00
5:15 AM,55.4,55.4,100,30.10,7.0,SE,5.8,-,N/A,,Overcast,140,2012-10-13 10:15:00
5:35 AM,55.4,55.4,100,30.11,7.0,Calm,Calm,-,N/A,,Overcast,0,2012-10-13 10:35:00
5:55 AM,55.4,55.4,100,30.10,7.0,Calm,Calm,-,N/A,,Overcast,0,2012-10-13 10:55:00
6:15 AM,57.2,55.4,94,30.09,8.0,SE,6.9,-,N/A,,Overcast,140,2012-10-13 11:15:00
6:35 AM,57.2,55.4,94,30.09,9.0,SE,4.6,-,N/A,,Overcast,140,2012-10-13 11:35:00
6:55 AM,57.2,57.2,100,30.09,10.0,SSE,6.9,-,N/A,,Overcast,150,2012-10-13 11:55:00
7:15 AM,57.2,57.2,100,30.08,10.0,SE,5.8,-,N/A,,Overcast,140,2012-10-13 12:15:00
7:35 AM,57.2,57.2,100,30.08,10.0,SE,6.9,-,N/A,,Overcast,140,2012-10-13 12:35:00
7:55 AM,59.0,57.2,94,30.07,10.0,SE,4.6,-,N/A,,Overcast,140,2012-10-13 12:55:00
8:15 AM,59.0,57.2,94,30.07,8.0,SE,6.9,-,N/A,,Overcast,140,2012-10-13 13:15:00
8:35 AM,59.0,59.0,100,30.07,9.0,SSE,8.1,-,N/A,,Overcast,150,2012-10-13 13:35:00
8:55 AM,60.8,59.0,94,30.06,9.0,SE,6.9,-,N/A,,Overcast,140,2012-10-13 13:55:00
9:15 AM,62.6,59.0,88,30.06,8.0,SSE,6.9,-,N/A,,Overcast,150,2012-10-13 14:15:00
9:35 AM,62.6,59.0,88,30.06,9.0,SE,5.8,-,N/A,,Overcast,140,2012-10-13 14:35:00
9:55 AM,64.4,60.8,88,30.06,9.0,South,6.9,-,N/A,,Overcast,180,2012-10-13 14:55:00
10:15 AM,66.2,62.6,88,30.05,10.0,South,6.9,-,N/A,,Overcast,190,2012-10-13 15:15:00
10:35 AM,68.0,62.6,83,30.05,10.0,South,10.4,16.1,N/A,,Overcast,190,2012-10-13 15:35:00
10:55 AM,69.8,62.6,78,30.03,10.0,South,12.7,-,N/A,,Scattered Clouds,170,2012-10-13 15:55:00
11:15 AM,71.6,62.6,73,30.02,10.0,South,12.7,-,N/A,,Partly Cloudy,180,2012-10-13 16:15:00
11:35 AM,71.6,62.6,73,30.02,10.0,South,12.7,-,N/A,,Partly Cloudy,190,2012-10-13 16:35:00
11:55 AM,73.4,62.6,69,30.00,10.0,South,15.0,-,N/A,,Scattered Clouds,190,2012-10-13 16:55:00
12:15 PM,73.4,62.6,69,29.99,10.0,South,10.4,-,N/A,,Mostly Cloudy,190,2012-10-13 17:15:00
12:35 PM,75.2,62.6,65,29.98,10.0,SSW,16.1,25.3,N/A,,Mostly Cloudy,210,2012-10-13 17:35:00
12:55 PM,77.0,62.6,61,29.97,10.0,South,15.0,20.7,N/A,,Scattered Clouds,190,2012-10-13 17:55:00
1:15 PM,77.0,62.6,61,29.97,10.0,SSW,12.7,23.0,N/A,,Mostly Cloudy,200,2012-10-13 18:15:00
1:35 PM,77.0,62.6,61,29.97,10.0,SSW,16.1,19.6,N/A,,Mostly Cloudy,210,2012-10-13 18:35:00
1:55 PM,77.0,62.6,61,29.95,10.0,SW,15.0,-,N/A,,Scattered Clouds,230,2012-10-13 18:55:00
2:15 PM,77.0,62.6,61,29.93,10.0,SSW,12.7,19.6,N/A,,Clear,200,2012-10-13 19:15:00
2:35 PM,77.0,62.6,61,29.93,10.0,SW,13.8,17.3,N/A,,Scattered Clouds,220,2012-10-13 19:35:00
3:15 PM,77.0,62.6,61,29.91,10.0,South,15.0,-,N/A,,Partly Cloudy,190,2012-10-13 20:15:00
3:35 PM,77.0,62.6,61,29.91,10.0,South,11.5,-,N/A,,Clear,180,2012-10-13 20:35:00
3:55 PM,77.0,62.6,61,29.91,10.0,SSW,10.4,-,N/A,,Clear,200,2012-10-13 20:55:00
4:15 PM,77.0,62.6,61,29.91,10.0,SSW,9.2,-,N/A,,Partly Cloudy,200,2012-10-13 21:15:00
4:55 PM,75.2,62.6,65,29.91,10.0,SSW,10.4,-,N/A,Thunderstorm,Scattered Clouds,210,2012-10-13 21:55:00
5:15 PM,75.2,60.8,61,29.90,10.0,SW,6.9,-,N/A,,Mostly Cloudy,220,2012-10-13 22:15:00
5:35 PM,75.2,60.8,61,29.90,10.0,South,3.5,-,N/A,,Overcast,190,2012-10-13 22:35:00
5:55 PM,73.4,62.6,69,29.90,10.0,South,6.9,-,N/A,,Overcast,170,2012-10-13 22:55:00
6:15 PM,73.4,62.6,69,29.89,10.0,South,10.4,-,N/A,,Overcast,180,2012-10-13 23:15:00
6:35 PM,73.4,62.6,69,29.88,10.0,SSE,9.2,-,N/A,,Overcast,160,2012-10-13 23:35:00
7:55 PM,71.6,62.6,73,29.86,10.0,SE,8.1,-,N/A,Thunderstorm,Overcast,140,2012-10-14 00:55:00
8:15 PM,71.6,64.4,78,29.86,10.0,SSE,8.1,-,N/A,,Overcast,150,2012-10-14 01:15:00
8:35 PM,71.6,64.4,78,29.85,10.0,SSE,8.1,-,N/A,,Overcast,150,2012-10-14 01:35:00
9:15 PM,71.6,64.4,78,29.83,10.0,SE,9.2,-,N/A,,Overcast,140,2012-10-14 02:15:00
9:35 PM,71.6,64.4,78,29.82,10.0,SE,8.1,-,N/A,,Overcast,140,2012-10-14 02:35:00
9:55 PM,71.6,64.4,78,29.81,10.0,SE,8.1,-,N/A,,Mostly Cloudy,140,2012-10-14 02:55:00
10:15 PM,71.6,64.4,78,29.80,10.0,SE,8.1,-,N/A,Thunderstorm,Partly Cloudy,140,2012-10-14 03:15:00
10:55 PM,71.6,64.4,78,29.78,6.0,South,13.8,18.4,N/A,Rain,Light Rain,170,2012-10-14 03:55:00
11:15 PM,71.6,64.4,78,29.78,10.0,South,10.4,-,N/A,Thunderstorm,Mostly Cloudy,170,2012-10-14 04:15:00
11:35 PM,69.8,66.2,88,29.81,3.0,SW,11.5,-,0.02,Rain,Light Rain,230,2012-10-14 04:35:00